This is the latest recevied weather packets stored in our database for station/object CT2HRB-13. If no packets are shown the sender has not sent any weather packets the latest 10 day(s).
| Time | Temp. | Humidity | Pressure | Rain* | Wind** | Luminosity | Snow |
|---|---|---|---|---|---|---|---|
| 1778226901 | 15.56° C | 69% | 1009.4 hPa | - | - | - | - |
| 1778226601 | 15.56° C | 70% | 1009.6 hPa | - | - | - | - |
| 1778226301 | 15° C | 70% | 1009.3 hPa | - | - | - | - |
| 1778226002 | 15° C | 70% | 1009.4 hPa | - | - | - | - |
| 1778225701 | 15.56° C | 69% | 1009.4 hPa | - | - | - | - |
| 1778225401 | 15.56° C | 68% | 1009.4 hPa | - | - | - | - |
| 1778225102 | 15.56° C | 69% | 1009.4 hPa | - | - | - | - |
| 1778224801 | 15.56° C | 71% | 1009.5 hPa | - | - | - | - |
| 1778224502 | 14.44° C | 72% | 1009.4 hPa | - | - | - | - |
| 1778224201 | 14.44° C | 72% | 1009.3 hPa | - | - | - | - |
| 1778223901 | 14.44° C | 72% | 1009.3 hPa | - | - | - | - |
| 1778223602 | 14.44° C | 75% | 1009.2 hPa | - | - | - | - |
| 1778223302 | 13.89° C | 75% | 1009.1 hPa | - | - | - | - |
| 1778223002 | 13.89° C | 77% | 1009.2 hPa | - | - | - | - |
| 1778222702 | 13.89° C | 77% | 1009.3 hPa | - | - | - | - |
| 1778222401 | 13.89° C | 77% | 1009.3 hPa | - | - | - | - |
| 1778222102 | 13.33° C | 78% | 1009.1 hPa | - | - | - | - |
| 1778221802 | 13.33° C | 78% | 1009.1 hPa | - | - | - | - |
| 1778221502 | 13.33° C | 79% | 1009.1 hPa | - | - | - | - |
| 1778221201 | 13.33° C | 79% | 1009 hPa | - | - | - | - |
| 1778220901 | 13.33° C | 79% | 1008.9 hPa | - | - | - | - |
| 1778220601 | 12.78° C | 79% | 1009.1 hPa | - | - | - | - |
| 1778220301 | 12.78° C | 79% | 1009.1 hPa | - | - | - | - |
| 1778220002 | 12.78° C | 79% | 1009 hPa | - | - | - | - |
| 1778219702 | 12.78° C | 79% | 1008.9 hPa | - | - | - | - |
* Rain since midnight (hover to see other rain measurements)
** Current wind speed in m/s (hover to see current wind gust speed)